Location: Antioch Baptist Church
(32.6696°N, 85.7327°W)
Time: 12:14:51
(UTC+00:00)

Meteor 2-4 Rocket - Pass Details

Date: 14 July 2020
Orbit: 799 x 908 km, 81.2° (Epoch: 08 August)

Event Time Altitude Azimuth Distance (km) Brightness Sun altitude
Rises 07:06:21 0° 358° (N) 3,539 7.8 -32.7°
Reaches altitude 10° 07:08:56 10° 4° (N) 2,589 7.0 -32.5°
Maximum altitude 07:14:38 49° 79° (E) 1,144 4.4 -32.0°
Enters shadow 07:14:40 49° 80° (E) 1,144 4.4 -32.0°
